When you browse on this site, cookies collect data to enhance your experience and personalize the content and advertising you see.
Visit our Privacy Policy to learn more. By continuing to use the site, you agree to this use of cookies and data.
  • In Sweden
  • List of Countries
  • For 7 days
  • Water Temperature
  • Weather Map
  • Weather Widgets
  • user-avatar
    Login

    Hourly Weather Ambon

    Today, 21 February, Friday

    Time Temperature Precipitation Wind Pressure Humidity
    00:00 +29°C° 0.6 mm 6 mps 744 mmHg 78%
    01:00 +29°C° 0 mm 6 mps 744 mmHg 78%
    02:00 +29°C° 0 mm 5 mps 743 mmHg 78%
    03:00 +28°C° 0 mm 4 mps 743 mmHg 78%
    04:00 +28°C° 0.1 mm 4 mps 743 mmHg 79%
    05:00 +28°C° 0.1 mm 4 mps 743 mmHg 80%
    06:00 +28°C° 0.1 mm 5 mps 743 mmHg 80%
    07:00 +29°C° 0.1 mm 5 mps 744 mmHg 79%
    08:00 +29°C° 0.1 mm 5 mps 745 mmHg 77%
    09:00 +29°C° 0 mm 3 mps 745 mmHg 74%
    10:00 +30°C° 0.1 mm 3 mps 745 mmHg 73%
    11:00 +30°C° 0.1 mm 4 mps 744 mmHg 72%
    12:00 +30°C° 0.1 mm 4 mps 744 mmHg 72%
    13:00 +30°C° 0.4 mm 4 mps 744 mmHg 71%
    14:00 +32°C° 0.4 mm 5 mps 743 mmHg 71%
    15:00 +32°C° 0 mm 5 mps 743 mmHg 71%
    22:00 +29°C° 0.1 mm 5 mps 745 mmHg 78%
    23:00 +29°C° 0.1 mm 5 mps 745 mmHg 78%

    Tomorrow, 22 February, Saturday

    Time Temperature Precipitation Wind Pressure Humidity
    00:00 +29°C° 0.1 mm 5 mps 745 mmHg 79%
    01:00 +29°C° 0.4 mm 5 mps 744 mmHg 79%
    02:00 +29°C° 0.4 mm 5 mps 744 mmHg 79%
    03:00 +29°C° 0.4 mm 5 mps 743 mmHg 79%
    04:00 +29°C° 0.7 mm 6 mps 743 mmHg 79%
    05:00 +29°C° 0.7 mm 6 mps 744 mmHg 80%
    06:00 +29°C° 0.7 mm 6 mps 744 mmHg 80%
    07:00 +29°C° 0.8 mm 6 mps 744 mmHg 80%
    08:00 +29°C° 0.8 mm 6 mps 745 mmHg 79%
    09:00 +29°C° 0.8 mm 6 mps 745 mmHg 79%
    10:00 +30°C° 0.2 mm 7 mps 745 mmHg 77%
    11:00 +30°C° 0.2 mm 7 mps 744 mmHg 76%
    12:00 +30°C° 0.2 mm 7 mps 744 mmHg 75%
    13:00 +30°C° 0.2 mm 7 mps 744 mmHg 75%
    14:00 +31°C° 0.2 mm 8 mps 743 mmHg 75%
    15:00 +31°C° 0.2 mm 8 mps 743 mmHg 75%
    16:00 +31°C° 0.7 mm 8 mps 743 mmHg 76%
    17:00 +31°C° 0.7 mm 8 mps 743 mmHg 77%
    18:00 +29°C° 0.7 mm 8 mps 742 mmHg 79%
    19:00 +29°C° 0.9 mm 8 mps 743 mmHg 79%
    20:00 +29°C° 0.9 mm 8 mps 743 mmHg 79%
    21:00 +29°C° 0.9 mm 8 mps 744 mmHg 80%
    22:00 +29°C° 0.5 mm 8 mps 744 mmHg 80%
    23:00 +29°C° 0.5 mm 8 mps 744 mmHg 79%

    Day after tomorrow, 23 February, Sunday

    Time Temperature Precipitation Wind Pressure Humidity
    00:00 +29°C° 0.5 mm 7 mps 744 mmHg 79%
    01:00 +29°C° 0.6 mm 7 mps 744 mmHg 79%
    02:00 +29°C° 0.6 mm 7 mps 743 mmHg 79%
    03:00 +29°C° 0.6 mm 8 mps 743 mmHg 80%
    04:00 +29°C° 0.6 mm 7 mps 743 mmHg 80%
    05:00 +28°C° 0.6 mm 7 mps 743 mmHg 81%
    06:00 +28°C° 0.6 mm 6 mps 743 mmHg 81%
    07:00 +28°C° 0.2 mm 6 mps 744 mmHg 80%
    08:00 +29°C° 0.2 mm 6 mps 744 mmHg 78%
    09:00 +29°C° 0.2 mm 5 mps 745 mmHg 77%
    10:00 +30°C° 0.4 mm 5 mps 744 mmHg 75%
    11:00 +30°C° 0.4 mm 5 mps 744 mmHg 73%
    12:00 +30°C° 0.4 mm 5 mps 744 mmHg 71%
    13:00 +30°C° 0.3 mm 6 mps 743 mmHg 72%
    14:00 +30°C° 0.3 mm 6 mps 742 mmHg 72%
    15:00 +32°C° 0.3 mm 6 mps 742 mmHg 72%
    16:00 +30°C° 0.2 mm 6 mps 742 mmHg 72%
    17:00 +30°C° 0.2 mm 6 mps 742 mmHg 73%
    18:00 +30°C° 0.2 mm 6 mps 742 mmHg 74%
    19:00 +30°C° 0.1 mm 6 mps 742 mmHg 75%
    20:00 +29°C° 0.1 mm 6 mps 743 mmHg 76%
    21:00 +29°C° 0.1 mm 6 mps 743 mmHg 77%
    22:00 +29°C° 0 mm 6 mps 743 mmHg 77%
    23:00 +29°C° 0 mm 7 mps 743 mmHg 76%

    24 February, Monday

    Time Temperature Precipitation Wind Pressure Humidity
    00:00 +29°C° 0 mm 7 mps 744 mmHg 76%
    01:00 +29°C° 0.1 mm 6 mps 743 mmHg 76%
    02:00 +29°C° 0.1 mm 6 mps 743 mmHg 76%
    03:00 +29°C° 0.1 mm 5 mps 742 mmHg 76%
    04:00 +29°C° 0.1 mm 5 mps 742 mmHg 76%
    05:00 +29°C° 0.1 mm 5 mps 742 mmHg 76%
    06:00 +29°C° 0.1 mm 5 mps 743 mmHg 76%
    07:00 +29°C° 0.3 mm 4 mps 743 mmHg 76%
    08:00 +29°C° 0.3 mm 4 mps 744 mmHg 75%
    09:00 +29°C° 0.3 mm 4 mps 744 mmHg 74%
    10:00 +30°C° 0.2 mm 4 mps 744 mmHg 74%
    11:00 +30°C° 0.2 mm 4 mps 744 mmHg 74%
    12:00 +30°C° 0.2 mm 4 mps 744 mmHg 74%
    13:00 +30°C° 0.2 mm 5 mps 743 mmHg 74%
    14:00 +30°C° 0.2 mm 5 mps 743 mmHg 74%
    15:00 +30°C° 0.2 mm 6 mps 742 mmHg 75%
    16:00 +29°C° 0.1 mm 6 mps 742 mmHg 76%
    17:00 +29°C° 0.1 mm 5 mps 742 mmHg 77%
    18:00 +29°C° 0.1 mm 5 mps 742 mmHg 78%
    19:00 +29°C° 0 mm 5 mps 742 mmHg 79%
    20:00 +29°C° 0 mm 5 mps 742 mmHg 79%
    21:00 +29°C° 0 mm 4 mps 743 mmHg 80%
    22:00 +29°C° 0.2 mm 4 mps 743 mmHg 80%
    23:00 +29°C° 0.2 mm 4 mps 743 mmHg 81%

    25 February, Tuesday

    Time Temperature Precipitation Wind Pressure Humidity
    00:00 +29°C° 0.2 mm 4 mps 743 mmHg 81%
    01:00 +29°C° 0.3 mm 4 mps 743 mmHg 81%
    02:00 +29°C° 0.3 mm 4 mps 742 mmHg 81%
    03:00 +29°C° 0.3 mm 4 mps 742 mmHg 81%
    04:00 +29°C° 0.9 mm 4 mps 742 mmHg 81%
    05:00 +29°C° 0.9 mm 4 mps 742 mmHg 81%
    06:00 +29°C° 0.9 mm 4 mps 742 mmHg 81%
    07:00 +29°C° 0.5 mm 4 mps 742 mmHg 80%
    08:00 +29°C° 0.5 mm 4 mps 743 mmHg 79%
    09:00 +29°C° 0.5 mm 4 mps 743 mmHg 79%
    10:00 +30°C° 0.3 mm 4 mps 743 mmHg 76%
    11:00 +30°C° 0.3 mm 4 mps 743 mmHg 74%
    12:00 +32°C° 0.3 mm 4 mps 742 mmHg 71%
    13:00 +32°C° 0.1 mm 4 mps 742 mmHg 71%
    14:00 +32°C° 0.1 mm 4 mps 741 mmHg 71%
    15:00 +32°C° 0.1 mm 4 mps 741 mmHg 70%
    16:00 +32°C° 0.4 mm 4 mps 741 mmHg 71%
    17:00 +32°C° 0.4 mm 5 mps 741 mmHg 72%
    18:00 +30°C° 0.4 mm 5 mps 741 mmHg 73%
    19:00 +30°C° 0.3 mm 5 mps 741 mmHg 75%
    20:00 +30°C° 0.3 mm 5 mps 742 mmHg 76%
    21:00 +29°C° 0.3 mm 5 mps 742 mmHg 78%
    22:00 +29°C° 0.4 mm 4 mps 742 mmHg 78%
    23:00 +29°C° 0.4 mm 4 mps 742 mmHg 78%

    26 February, Wednesday

    Time Temperature Precipitation Wind Pressure Humidity
    00:00 +29°C° 0.4 mm 4 mps 743 mmHg 78%
    01:00 +29°C° 0.3 mm 4 mps 742 mmHg 78%
    02:00 +29°C° 0.3 mm 4 mps 742 mmHg 78%
    03:00 +29°C° 0.3 mm 4 mps 741 mmHg 78%
    04:00 +29°C° 0.1 mm 4 mps 741 mmHg 78%
    05:00 +29°C° 0.1 mm 4 mps 742 mmHg 78%
    06:00 +29°C° 0.1 mm 4 mps 742 mmHg 78%
    07:00 +29°C° 0.1 mm 4 mps 742 mmHg 77%
    08:00 +29°C° 0.1 mm 4 mps 743 mmHg 76%
    09:00 +30°C° 0.1 mm 4 mps 743 mmHg 75%
    10:00 +30°C° 0.3 mm 4 mps 743 mmHg 74%
    11:00 +30°C° 0.3 mm 4 mps 742 mmHg 72%
    12:00 +32°C° 0.3 mm 5 mps 742 mmHg 71%
    13:00 +32°C° 0.4 mm 5 mps 741 mmHg 71%
    14:00 +32°C° 0.4 mm 5 mps 741 mmHg 70%
    15:00 +32°C° 0.4 mm 5 mps 740 mmHg 70%
    16:00 +32°C° 0.7 mm 6 mps 740 mmHg 72%
    17:00 +32°C° 0.7 mm 6 mps 741 mmHg 73%
    18:00 +30°C° 0.7 mm 6 mps 741 mmHg 75%
    19:00 +30°C° 0.5 mm 6 mps 741 mmHg 76%
    20:00 +30°C° 0.5 mm 5 mps 742 mmHg 77%
    21:00 +29°C° 0.5 mm 5 mps 742 mmHg 79%
    22:00 +29°C° 0.1 mm 5 mps 742 mmHg 79%
    23:00 +29°C° 0.1 mm 5 mps 742 mmHg 78%
    Show more